TimeMST,TemperatureF,Dew PointF,Humidity,Sea Level PressureIn,VisibilityMPH,Wind Direction,Wind SpeedMPH,Gust SpeedMPH,PrecipitationIn,Events,Conditions,WindDirDegrees,DateUTC
12:15 AM,37.4,19.4,48,29.73,10.0,South,12.7,-,N/A,,Clear,170,2012-11-10 07:15:00
12:35 AM,39.2,17.6,42,29.71,10.0,SSE,9.2,-,N/A,,Clear,160,2012-11-10 07:35:00
12:55 AM,37.4,19.4,48,29.69,10.0,South,8.1,-,N/A,,Clear,170,2012-11-10 07:55:00
1:15 AM,37.4,19.4,48,29.69,10.0,SSE,12.7,-,N/A,,Clear,150,2012-11-10 08:15:00
1:55 AM,37.4,21.2,52,29.66,10.0,SSE,16.1,-,N/A,,Partly Cloudy,150,2012-11-10 08:55:00
2:15 AM,35.6,24.8,65,29.67,10.0,SE,5.8,-,N/A,,Clear,140,2012-11-10 09:15:00
2:35 AM,39.2,24.8,56,29.65,10.0,SSW,8.1,-,N/A,,Partly Cloudy,210,2012-11-10 09:35:00
2:55 AM,39.2,26.6,61,29.64,10.0,South,10.4,-,N/A,,Mostly Cloudy,170,2012-11-10 09:55:00
3:15 AM,39.2,24.8,56,29.63,10.0,SSE,10.4,-,N/A,,Mostly Cloudy,160,2012-11-10 10:15:00
3:35 AM,41.0,24.8,53,29.62,10.0,South,9.2,17.3,N/A,,Overcast,180,2012-11-10 10:35:00
3:55 AM,41.0,24.8,53,29.61,10.0,South,16.1,21.9,N/A,,Overcast,190,2012-11-10 10:55:00
4:15 AM,41.0,24.8,53,29.61,10.0,WSW,8.1,-,N/A,,Overcast,250,2012-11-10 11:15:00
4:35 AM,37.4,26.6,65,29.63,8.0,SW,6.9,-,N/A,,Overcast,230,2012-11-10 11:35:00
4:55 AM,35.6,26.6,70,29.63,3.0,West,10.4,-,N/A,,Overcast,260,2012-11-10 11:55:00
5:35 AM,33.8,28.4,81,29.65,2.0,West,3.5,-,N/A,,Overcast,270,2012-11-10 12:35:00
5:55 AM,33.8,28.4,81,29.63,2.0,Calm,Calm,-,N/A,,Overcast,0,2012-11-10 12:55:00
6:15 AM,33.8,28.4,81,29.63,5.0,Calm,Calm,-,0.02,,Overcast,0,2012-11-10 13:15:00
6:35 AM,33.8,28.4,81,29.62,2.0,SSE,5.8,-,0.04,,Overcast,150,2012-11-10 13:35:00
6:55 AM,33.8,28.4,81,29.62,10.0,SSE,5.8,-,0.04,,Overcast,150,2012-11-10 13:55:00
7:15 AM,33.8,28.4,81,29.62,10.0,Calm,Calm,-,N/A,,Overcast,0,2012-11-10 14:15:00
7:35 AM,33.8,28.4,81,29.64,3.0,SSW,9.2,-,N/A,,Overcast,200,2012-11-10 14:35:00
7:55 AM,32.0,24.8,75,29.66,10.0,WSW,12.7,24.2,N/A,,Overcast,250,2012-11-10 14:55:00
8:15 AM,30.2,24.8,80,29.67,2.0,SSW,11.5,16.1,N/A,,Overcast,200,2012-11-10 15:15:00
8:35 AM,30.2,24.8,80,29.66,7.0,SSW,9.2,-,N/A,,Overcast,210,2012-11-10 15:35:00
8:55 AM,30.2,24.8,80,29.65,10.0,SW,8.1,-,N/A,,Overcast,220,2012-11-10 15:55:00
9:15 AM,32.0,23.0,69,29.65,10.0,SW,10.4,17.3,N/A,,Overcast,230,2012-11-10 16:15:00
9:35 AM,30.2,21.2,69,29.66,8.0,SW,11.5,-,N/A,,Overcast,230,2012-11-10 16:35:00
9:55 AM,28.4,21.2,74,29.69,1.5,WSW,15.0,23.0,N/A,,Overcast,240,2012-11-10 16:55:00
10:15 AM,28.4,21.2,74,29.69,4.0,WSW,15.0,-,N/A,,Overcast,240,2012-11-10 17:15:00
10:35 AM,28.4,23.0,80,29.68,2.5,WSW,15.0,-,N/A,,Overcast,250,2012-11-10 17:35:00
10:55 AM,28.4,23.0,80,29.69,5.0,WSW,13.8,-,N/A,,Overcast,250,2012-11-10 17:55:00
11:15 AM,30.2,21.2,69,29.69,8.0,WSW,13.8,19.6,N/A,,Overcast,240,2012-11-10 18:15:00
11:35 AM,30.2,19.4,64,29.69,10.0,WSW,11.5,16.1,N/A,,Overcast,240,2012-11-10 18:35:00
11:55 AM,32.0,17.6,55,29.68,10.0,WSW,15.0,-,N/A,,Overcast,240,2012-11-10 18:55:00
12:15 PM,32.0,19.4,60,29.68,10.0,WSW,11.5,-,N/A,,Overcast,240,2012-11-10 19:15:00
12:35 PM,32.0,17.6,55,29.67,10.0,WSW,17.3,23.0,N/A,,Mostly Cloudy,250,2012-11-10 19:35:00
1:15 PM,30.2,12.2,47,29.67,10.0,West,13.8,24.2,N/A,,Overcast,260,2012-11-10 20:15:00
1:35 PM,30.2,10.4,44,29.67,10.0,WSW,13.8,19.6,N/A,,Overcast,250,2012-11-10 20:35:00
1:55 PM,30.2,10.4,44,29.67,10.0,WSW,20.7,27.6,N/A,,Mostly Cloudy,250,2012-11-10 20:55:00
2:15 PM,32.0,8.6,38,29.67,10.0,West,17.3,29.9,N/A,,Partly Cloudy,270,2012-11-10 21:15:00
2:35 PM,30.2,6.8,37,29.68,10.0,West,18.4,27.6,N/A,,Mostly Cloudy,260,2012-11-10 21:35:00
2:55 PM,30.2,6.8,37,29.69,10.0,West,18.4,25.3,N/A,,Partly Cloudy,260,2012-11-10 21:55:00
3:15 PM,30.2,3.2,32,29.70,10.0,West,17.3,25.3,N/A,,Clear,270,2012-11-10 22:15:00
3:55 PM,28.4,3.2,34,29.72,10.0,WSW,16.1,25.3,N/A,,Clear,250,2012-11-10 22:55:00
4:15 PM,28.4,5.0,37,29.73,10.0,West,10.4,19.6,N/A,,Clear,260,2012-11-10 23:15:00
4:35 PM,26.6,5.0,40,29.72,10.0,WSW,16.1,24.2,N/A,,Clear,250,2012-11-10 23:35:00
4:55 PM,26.6,5.0,40,29.73,10.0,West,17.3,21.9,N/A,,Clear,260,2012-11-10 23:55:00
5:15 PM,26.6,3.2,37,29.74,10.0,West,17.3,-,N/A,,Clear,260,2012-11-11 00:15:00
5:35 PM,26.6,3.2,37,29.74,10.0,WSW,13.8,21.9,N/A,,Clear,250,2012-11-11 00:35:00
6:15 PM,24.8,6.8,46,29.74,10.0,WSW,18.4,-,N/A,,Clear,240,2012-11-11 01:15:00
6:35 PM,24.8,5.0,43,29.76,10.0,WSW,16.1,24.2,N/A,,Scattered Clouds,250,2012-11-11 01:35:00
6:55 PM,24.8,5.0,43,29.76,10.0,West,17.3,21.9,N/A,,Partly Cloudy,260,2012-11-11 01:55:00
7:15 PM,24.8,6.8,46,29.77,10.0,West,15.0,21.9,N/A,,Clear,260,2012-11-11 02:15:00
7:55 PM,23.0,6.8,50,29.78,10.0,SE,3.5,-,N/A,,Clear,140,2012-11-11 02:55:00
8:15 PM,19.4,6.8,58,29.79,10.0,East,6.9,-,N/A,,Clear,90,2012-11-11 03:15:00
8:35 PM,19.4,8.6,63,29.80,10.0,WSW,3.5,-,N/A,,Scattered Clouds,240,2012-11-11 03:35:00
9:15 PM,21.2,8.6,58,29.80,10.0,Calm,Calm,-,N/A,,Clear,0,2012-11-11 04:15:00
9:35 PM,17.6,5.0,58,29.80,10.0,SSE,9.2,-,N/A,,Clear,150,2012-11-11 04:35:00
9:55 PM,17.6,8.6,68,29.80,10.0,SE,9.2,-,N/A,,Clear,130,2012-11-11 04:55:00
10:35 PM,17.6,6.8,63,29.81,10.0,SW,4.6,-,N/A,,Overcast,220,2012-11-11 05:35:00
10:55 PM,19.4,10.4,68,29.81,9.0,SSW,4.6,-,N/A,,Mostly Cloudy,210,2012-11-11 05:55:00
11:15 PM,21.2,12.2,68,29.81,10.0,SW,8.1,-,N/A,,Scattered Clouds,220,2012-11-11 06:15:00
11:35 PM,19.4,14.0,80,29.81,4.0,SSW,5.8,-,N/A,,Mostly Cloudy,210,2012-11-11 06:35:00
11:55 PM,19.4,12.2,74,29.81,9.0,SSW,8.1,-,N/A,,Scattered Clouds,210,2012-11-11 06:55:00